Tracking 19846 objects as of 18-Sep-2019
HD Live streaming from Space Station
objects crossing your sky now

INTELSAT 6B (PAS 6B)

Track INTELSAT 6B (PAS 6B) now!
INTELSAT 6B (PAS 6B) is classified as:


NORAD ID: 25585
Int'l Code: 1998-075A
Perigee: 36,042.1 km
Apogee: 36,178.5 km
Inclination: 8.5 °
Period: 1,452.3 minutes
Semi major axis: 42481 km
RCS: 21.1435 m2 (large)
Launch date: December 22, 1998
Source: United States (US)
Launch site: FRENCH GUIANA (FRGUI)

voice and video communcations; 32 Ku-band; South America.
aabbcc
Your satellite tracking list
Your tracking list is empty




NASA's NSSDC Master Catalog

Two Line Element Set (TLE):
1 25585U 98075A   19260.75565007 -.00000182 +00000-0 +00000-0 0  9999
2 25585 008.5434 046.3059 0016058 108.6500 050.8169 00.99153054075555
Source of the keplerian elements: AFSPC